Location: Unspecified
(54.1780°N, 0.0000°E)
Time: 08:53:58
(UTC+00:00)

Transit 2A - Pass Details

Date: 23 June 2019
Orbit: 594 x 965 km, 66.7° (Epoch: 17 July)

Event Time Altitude Azimuth Distance (km) Brightness Sun altitude
Rises 06:48:57 0° 314° (NW) 3,565 9.1 25.6°
Reaches altitude 10° 06:51:44 10° 321° (NW) 2,574 8.5 26.0°
Maximum altitude 06:57:24 43° 33° (NNE) 1,168 7.8 26.8°
Drops below altitude 10° 07:02:32 10° 104° (ESE) 2,332 10.0 27.5°
Sets 07:04:56 0° 112° (ESE) 3,196 10.2 27.9°
